Location: Madrid
(40.4000°N, 3.6830°W)
Time: 22:53:11
(UTC+02:00)

ISS - Pass Details

Date: 24 July 2017
Orbit: 400 x 408 km, 51.6° (Epoch: 24 July)

Event Time Altitude Azimuth Distance (km) Brightness Sun altitude
Rises 00:55:12 0° 277° (W) 2,306 0.4 -26.5°
Reaches altitude 10° 00:57:46 10° 298° (WNW) 1,450 -0.4 -26.7°
Maximum altitude 01:00:01 17° 342° (NNW) 1,096 -0.8 -26.8°
Drops below altitude 10° 01:02:17 10° 26° (NNE) 1,453 -0.5 -27.0°
Sets 01:04:52 0° 47° (NE) 2,315 0.3 -27.2°
